Location: Bucharest
(44.4268°N, 26.1025°E)
Time: 01:17:34
(UTC+03:00)

CUBESAT XI-V - Pass Details

Date: 04 July 2022
Orbit: 668 x 690 km, 98.1° (Epoch: 15 August)

Event Time Altitude Azimuth Distance (km) Brightness Sun altitude
Exits shadow 04:28:51 10° 251° (WSW) 2,105 ? -10.1°
Reaches altitude 10° 04:28:52 10° 251° (WSW) 2,104 ? -10.1°
Maximum altitude 04:30:27 12° 272° (W) 1,997 ? -9.9°
Drops below altitude 10° 04:32:02 10° 292° (WNW) 2,106 ? -9.7°
Sets 04:35:54 0° 325° (NW) 3,023 ? -9.2°
